Location: Newark
(44.3100°N, 0.7769°W)
Time: 02:27:20
(UTC+00:00)

Envisat - Pass Details

Date: 22 November 2019
Orbit: 764 x 766 km, 98.1° (Epoch: 15 December)

Event Time Altitude Azimuth Distance (km) Brightness Sun altitude
Rises 17:04:44 0° 137° (SE) 3,222 6.0 -6.4°
Reaches altitude 10° 17:07:14 10° 127° (SE) 2,300 5.2 -6.8°
Maximum altitude 17:11:40 31° 66° (ENE) 1,316 3.7 -7.5°
Drops below altitude 10° 17:16:06 10° 6° (N) 2,313 5.2 -8.3°
Sets 17:18:37 0° 356° (N) 3,243 6.1 -8.7°
